Pagina principale
METAR-TAF:

METAR-TAF

Aeroporti :

Aeroporto di Atene-Eleftherios Venizelos

Atene, Grecia

latitudine: 37-56N, longitudine: 023-56E, altezza: 94 m

Osservazione

Il bollettino è stato emesso 10 minuti fa, alle 23:20 UTC
Vento 4 kt da nord, variando fra nord/nord-ovest e nord-est
Temperature 18°C
Umidità 68%
Pressione 1021 hPa
Visibilità 10 km o più
Poco nuvoloso ad un'altezza di 3000 ft
Nubi sparse ad un'altezza di 7000 ft

METAR: LGAV 152320Z 01004KT 330V040 9999 FEW030 SCT070 18/12 Q1021 NOSIG

Ora: 02:30 (23:30 UTC)

Previsione

Il bollettino è stato emesso 6 ore e 30 minuti fa, alle 17:00 UTC
Previsione valida dal 15 alle 18 UTC al 16 alle 18 UTC
Vento 12 kt da nord
Visibilità 10 km o più
Nuvoloso ad un'altezza di 4000 ft
Evoluzione graduale
dal 16 alle 10 UTC al 16 alle 12 UTC
Vento 12 kt da nord con raffiche fino a 25 kt

TAF: LGAV 151700Z 1518/1618 01012KT 9999 BKN040 BECMG 1610/1612 01012G25KT

Osservazioni e previsioni meteorologiche di più di 4000 aeroporti (messaggi METAR e TAF).

Le stazioni disponibili sono rappresentate dai dischi gialli e rossi sulla carta.

Puntare il mouse per vedere il nome della stazione.

Clicca sopra per visualizzare le osservazioni e previsioni meteorologiche.

Per cambiare la mappa : fare clic sui pulsanti verdi con una croce nera per ingrandire, il pulsante verde con un trattino per diminuire, o sulla freccia verde per le mappe adiacenti.


METAR-TAF: